TimeEDT,TemperatureF,Dew PointF,Humidity,Sea Level PressureIn,VisibilityMPH,Wind Direction,Wind SpeedMPH,Gust SpeedMPH,PrecipitationIn,Events,Conditions,WindDirDegrees,DateUTC
12:53 AM,71.1,70.0,96,30.26,9.0,Calm,Calm,-,N/A,,Clear,0,2013-07-15 04:53:00
1:53 AM,71.1,70.0,96,30.25,9.0,Calm,Calm,-,N/A,,Clear,0,2013-07-15 05:53:00
2:53 AM,71.1,69.1,93,30.25,8.0,Calm,Calm,-,N/A,,Clear,0,2013-07-15 06:53:00
3:53 AM,69.1,69.1,100,30.25,4.0,Calm,Calm,-,N/A,,Clear,0,2013-07-15 07:53:00
4:53 AM,70.0,68.0,93,30.25,7.0,Calm,Calm,-,N/A,,Mostly Cloudy,0,2013-07-15 08:53:00
5:53 AM,70.0,69.1,97,30.26,5.0,Calm,Calm,-,N/A,,Overcast,0,2013-07-15 09:53:00
6:53 AM,71.1,70.0,96,30.26,7.0,Calm,Calm,-,N/A,,Partly Cloudy,0,2013-07-15 10:53:00
7:53 AM,75.0,72.0,90,30.26,10.0,SSW,3.5,-,N/A,,Clear,210,2013-07-15 11:53:00
8:53 AM,79.0,72.0,79,30.26,10.0,SSW,3.5,-,N/A,,Clear,210,2013-07-15 12:53:00
9:53 AM,82.9,73.0,72,30.25,10.0,Calm,Calm,-,N/A,,Clear,0,2013-07-15 13:53:00
10:53 AM,87.1,73.0,63,30.24,10.0,WNW,3.5,-,N/A,,Clear,300,2013-07-15 14:53:00
11:53 AM,89.1,73.0,59,30.23,10.0,North,5.8,-,N/A,,Partly Cloudy,10,2013-07-15 15:53:00
12:53 PM,88.0,72.0,59,30.22,10.0,Variable,3.5,-,N/A,,Scattered Clouds,0,2013-07-15 16:53:00
1:53 PM,90.0,72.0,55,30.21,10.0,Variable,3.5,-,N/A,,Scattered Clouds,0,2013-07-15 17:53:00
2:53 PM,89.1,71.1,55,30.20,10.0,Calm,Calm,-,N/A,,Mostly Cloudy,0,2013-07-15 18:53:00
3:53 PM,91.0,71.1,52,30.19,10.0,North,5.8,-,N/A,,Clear,360,2013-07-15 19:53:00
4:53 PM,91.0,69.1,48,30.18,10.0,NNW,5.8,-,N/A,,Clear,340,2013-07-15 20:53:00
5:53 PM,90.0,68.0,48,30.17,10.0,NNW,5.8,-,N/A,,Clear,340,2013-07-15 21:53:00
6:53 PM,89.1,71.1,55,30.17,10.0,Calm,Calm,-,N/A,,Clear,0,2013-07-15 22:53:00
7:53 PM,84.9,71.1,63,30.17,10.0,Calm,Calm,-,N/A,,Clear,0,2013-07-15 23:53:00
8:53 PM,78.1,73.0,84,30.18,10.0,Calm,Calm,-,N/A,,Clear,0,2013-07-16 00:53:00
9:53 PM,75.9,73.0,91,30.19,10.0,Calm,Calm,-,N/A,,Clear,0,2013-07-16 01:53:00
10:53 PM,73.9,72.0,93,30.19,10.0,Calm,Calm,-,N/A,,Clear,0,2013-07-16 02:53:00
11:53 PM,72.0,71.1,97,30.19,8.0,Calm,Calm,-,N/A,,Clear,0,2013-07-16 03:53:00